Time,TemperatureF,DewpointF,PressureIn,WindDirection,WindDirectionDegrees,WindSpeedMPH,WindSpeedGustMPH,Humidity,HourlyPrecipIn,Conditions,Clouds,dailyrainin,SoftwareType,DateUTC
2013-01-11 00:04:00,18.6,11.6,29.99,NE,45,0.0,3.1,74,0.00,,,0.00,WUHU216HW,2013-01-11 07:04:00,
2013-01-11 00:09:00,18.5,11.4,29.99,ENE,68,0.0,0.0,74,0.00,,,0.00,WUHU216HW,2013-01-11 07:09:00,
2013-01-11 00:14:00,18.3,11.3,29.99,NE,45,0.4,2.4,74,0.00,,,0.00,WUHU216HW,2013-01-11 07:14:00,
2013-01-11 00:19:00,18.3,11.6,29.99,NE,45,0.0,3.5,75,0.00,,,0.00,WUHU216HW,2013-01-11 07:19:00,
2013-01-11 00:24:00,18.3,11.6,29.99,NNE,23,0.0,3.5,75,0.00,,,0.00,WUHU216HW,2013-01-11 07:24:00,
2013-01-11 00:30:00,18.3,11.6,29.99,NNE,23,0.0,2.0,75,0.00,,,0.00,WUHU216HW,2013-01-11 07:30:00,
2013-01-11 00:35:00,18.1,11.7,29.98,NNE,23,0.0,0.0,76,0.00,,,0.00,WUHU216HW,2013-01-11 07:35:00,
2013-01-11 00:40:00,18.1,12.0,29.99,NNE,23,0.0,0.0,77,0.00,,,0.00,WUHU216HW,2013-01-11 07:40:00,
2013-01-11 00:45:00,17.9,12.1,29.99,NNE,23,0.0,0.0,78,0.00,,,0.00,WUHU216HW,2013-01-11 07:45:00,
2013-01-11 00:50:00,17.9,12.1,29.99,NNE,23,0.0,0.0,78,0.00,,,0.00,WUHU216HW,2013-01-11 07:50:00,
2013-01-11 00:55:00,17.9,12.1,29.99,NNE,23,0.0,0.0,78,0.00,,,0.00,WUHU216HW,2013-01-11 07:55:00,
2013-01-11 01:00:00,17.9,12.1,29.99,NNE,23,0.0,0.0,78,0.00,,,0.00,WUHU216HW,2013-01-11 08:00:00,
2013-01-11 01:05:00,17.7,12.2,29.99,NNE,23,0.0,0.0,79,0.00,,,0.00,WUHU216HW,2013-01-11 08:05:00,
2013-01-11 01:10:00,17.7,12.2,29.99,NNE,23,0.0,0.0,79,0.00,,,0.00,WUHU216HW,2013-01-11 08:10:00,
2013-01-11 01:16:00,17.7,12.2,29.99,NNE,23,0.0,0.0,79,0.00,,,0.00,WUHU216HW,2013-01-11 08:16:00,
2013-01-11 01:20:00,17.7,12.2,29.99,NNE,23,3.1,3.3,79,0.00,,,0.00,WUHU216HW,2013-01-11 08:20:00,
2013-01-11 01:26:00,17.7,12.2,29.99,South,180,2.6,3.5,79,0.00,,,0.00,WUHU216HW,2013-01-11 08:26:00,
2013-01-11 01:31:00,17.7,12.2,29.99,South,180,2.6,3.5,79,0.00,,,0.00,WUHU216HW,2013-01-11 08:31:00,
2013-01-11 01:36:00,17.7,12.2,29.99,South,180,1.7,2.9,79,0.00,,,0.00,WUHU216HW,2013-01-11 08:36:00,
2013-01-11 01:41:00,17.6,12.3,29.99,South,180,0.0,2.2,80,0.00,,,0.00,WUHU216HW,2013-01-11 08:41:00,
2013-01-11 01:46:00,17.4,12.2,29.99,South,180,1.5,1.5,80,0.00,,,0.00,WUHU216HW,2013-01-11 08:46:00,
2013-01-11 01:51:00,17.4,12.2,29.99,South,180,0.0,2.2,80,0.00,,,0.00,WUHU216HW,2013-01-11 08:51:00,
2013-01-11 01:56:00,17.4,12.2,29.99,South,180,2.6,2.6,80,0.00,,,0.00,WUHU216HW,2013-01-11 08:56:00,
2013-01-11 02:01:00,17.4,12.2,29.99,South,180,1.7,2.6,80,0.00,,,0.00,WUHU216HW,2013-01-11 09:01:00,
2013-01-11 02:07:00,17.4,12.2,29.99,South,180,0.0,1.7,80,0.00,,,0.00,WUHU216HW,2013-01-11 09:07:00,
2013-01-11 02:12:00,17.2,12.0,30.00,South,180,0.0,0.0,80,0.00,,,0.00,WUHU216HW,2013-01-11 09:12:00,
2013-01-11 02:17:00,17.2,12.0,30.00,South,180,0.0,0.0,80,0.00,,,0.00,WUHU216HW,2013-01-11 09:17:00,
2013-01-11 02:22:00,17.2,12.0,30.00,South,180,0.0,0.0,80,0.00,,,0.00,WUHU216HW,2013-01-11 09:22:00,
2013-01-11 02:27:00,17.2,12.0,30.00,South,180,0.0,0.0,80,0.00,,,0.00,WUHU216HW,2013-01-11 09:27:00,
2013-01-11 02:32:00,17.2,12.0,30.00,South,180,2.0,2.0,80,0.00,,,0.00,WUHU216HW,2013-01-11 09:32:00,
2013-01-11 02:37:00,17.2,11.7,30.00,NE,45,6.2,6.9,79,0.00,,,0.00,WUHU216HW,2013-01-11 09:37:00,
2013-01-11 02:42:00,17.2,11.1,30.00,ESE,113,0.0,8.5,77,0.00,,,0.00,WUHU216HW,2013-01-11 09:42:00,
2013-01-11 02:47:00,17.2,10.5,30.00,ENE,68,0.0,9.3,75,0.00,,,0.00,WUHU216HW,2013-01-11 09:47:00,
2013-01-11 02:52:00,17.4,10.7,30.01,ESE,113,2.0,9.3,75,0.00,,,0.00,WUHU216HW,2013-01-11 09:52:00,
2013-01-11 02:57:00,17.4,10.7,30.01,ESE,113,0.6,4.2,75,0.00,,,0.00,WUHU216HW,2013-01-11 09:57:00,
2013-01-11 03:02:00,17.4,10.4,30.01,NNE,23,0.0,3.8,74,0.00,,,0.00,WUHU216HW,2013-01-11 10:02:00,
2013-01-11 03:07:00,17.4,10.7,30.01,NE,45,4.6,4.6,75,0.00,,,0.00,WUHU216HW,2013-01-11 10:07:00,
2013-01-11 03:12:00,17.4,10.0,30.01,NE,45,0.0,4.6,74,0.00,,,0.00,WUHU216HW,2013-01-11 10:12:00,
2013-01-11 03:17:00,17.2,10.2,30.00,NE,45,0.0,2.6,74,0.00,,,0.00,WUHU216HW,2013-01-11 10:17:00,
2013-01-11 03:22:00,17.2,10.2,30.01,NE,45,0.0,0.0,74,0.00,,,0.00,WUHU216HW,2013-01-11 10:22:00,
2013-01-11 03:27:00,16.8,9.9,30.01,ENE,68,0.0,3.1,74,0.00,,,0.00,WUHU216HW,2013-01-11 10:27:00,
2013-01-11 03:32:00,16.8,9.9,30.01,NE,45,0.4,3.1,74,0.00,,,0.00,WUHU216HW,2013-01-11 10:32:00,
2013-01-11 03:37:00,16.8,9.9,30.01,NE,45,0.0,1.1,74,0.00,,,0.00,WUHU216HW,2013-01-11 10:37:00,
2013-01-11 03:42:00,16.8,9.6,30.01,NE,45,5.1,5.1,73,0.00,,,0.00,WUHU216HW,2013-01-11 10:42:00,
2013-01-11 03:47:00,16.8,9.6,30.01,NE,45,4.0,5.1,73,0.00,,,0.00,WUHU216HW,2013-01-11 10:47:00,
2013-01-11 03:52:00,16.8,9.6,30.01,NNE,23,2.6,4.0,73,0.00,,,0.00,WUHU216HW,2013-01-11 10:52:00,
2013-01-11 03:58:00,16.8,9.3,30.01,NNW,338,5.1,6.0,72,0.00,,,0.00,WUHU216HW,2013-01-11 10:58:00,
2013-01-11 04:03:00,16.8,9.3,30.00,NNE,23,0.0,6.0,72,0.00,,,0.00,WUHU216HW,2013-01-11 11:03:00,
2013-01-11 04:08:00,16.8,9.0,30.01,NE,45,8.7,8.7,71,0.00,,,0.00,WUHU216HW,2013-01-11 11:08:00,
2013-01-11 04:13:00,17.0,8.9,30.01,ESE,113,0.0,8.7,70,0.00,,,0.00,WUHU216HW,2013-01-11 11:13:00,
2013-01-11 04:18:00,17.2,9.1,30.01,NNW,338,0.0,4.9,70,0.00,,,0.00,WUHU216HW,2013-01-11 11:18:00,
2013-01-11 04:23:00,17.2,9.4,30.02,NE,45,2.0,3.8,71,0.00,,,0.00,WUHU216HW,2013-01-11 11:23:00,
2013-01-11 04:28:00,16.8,8.4,30.01,NNE,23,8.2,8.2,69,0.00,,,0.00,WUHU216HW,2013-01-11 11:28:00,
2013-01-11 04:33:00,17.2,8.7,30.02,ESE,113,7.1,8.2,69,0.00,,,0.00,WUHU216HW,2013-01-11 11:33:00,
2013-01-11 04:38:00,16.8,8.4,30.02,NNW,338,0.0,7.1,69,0.00,,,0.00,WUHU216HW,2013-01-11 11:38:00,
2013-01-11 04:43:00,16.8,8.7,30.02,NNW,338,0.0,3.3,70,0.00,,,0.00,WUHU216HW,2013-01-11 11:43:00,
2013-01-11 04:48:00,16.8,9.0,30.02,NNW,338,0.0,0.0,71,0.00,,,0.00,WUHU216HW,2013-01-11 11:48:00,
2013-01-11 04:53:00,16.7,8.8,30.02,NNE,23,0.0,3.3,71,0.00,,,0.00,WUHU216HW,2013-01-11 11:53:00,
2013-01-11 04:59:00,16.5,8.7,30.02,NE,45,1.1,3.3,71,0.00,,,0.00,WUHU216HW,2013-01-11 11:59:00,
2013-01-11 05:04:00,16.5,8.0,30.02,NE,45,0.0,3.3,69,0.00,,,0.00,WUHU216HW,2013-01-11 12:04:00,
2013-01-11 05:09:00,16.5,8.4,30.02,NE,45,3.3,3.3,70,0.00,,,0.00,WUHU216HW,2013-01-11 12:09:00,
2013-01-11 05:14:00,16.5,8.7,30.03,NNE,23,0.0,3.3,71,0.00,,,0.00,WUHU216HW,2013-01-11 12:14:00,
2013-01-11 05:19:00,16.3,8.5,30.02,NNW,338,2.4,2.6,71,0.00,,,0.00,WUHU216HW,2013-01-11 12:19:00,
2013-01-11 05:24:00,16.3,8.5,30.03,NNE,23,0.0,3.1,71,0.00,,,0.00,WUHU216HW,2013-01-11 12:24:00,
2013-01-11 05:29:00,16.3,8.5,30.03,NNE,23,0.0,5.1,71,0.00,,,0.00,WUHU216HW,2013-01-11 12:29:00,
2013-01-11 05:34:00,16.3,8.5,30.03,NNE,23,0.0,5.1,71,0.00,,,0.00,WUHU216HW,2013-01-11 12:34:00,
2013-01-11 05:39:00,16.1,8.3,30.03,NNE,23,0.0,0.0,71,0.00,,,0.00,WUHU216HW,2013-01-11 12:39:00,
2013-01-11 05:44:00,16.1,8.3,30.03,NE,45,0.0,2.9,71,0.00,,,0.00,WUHU216HW,2013-01-11 12:44:00,
2013-01-11 05:49:00,16.1,7.7,30.04,NE,45,0.8,6.7,69,0.00,,,0.00,WUHU216HW,2013-01-11 12:49:00,
2013-01-11 05:54:00,16.3,7.8,30.04,East,90,0.0,6.7,69,0.00,,,0.00,WUHU216HW,2013-01-11 12:54:00,
2013-01-11 05:59:00,16.3,7.2,30.04,NE,45,3.3,8.2,67,0.00,,,0.00,WUHU216HW,2013-01-11 12:59:00,
2013-01-11 06:04:00,16.5,7.3,30.04,NNE,23,6.9,8.2,67,0.00,,,0.00,WUHU216HW,2013-01-11 13:04:00,
2013-01-11 06:09:00,16.5,7.0,30.04,NE,45,4.9,6.9,66,0.00,,,0.00,WUHU216HW,2013-01-11 13:09:00,
2013-01-11 06:14:00,16.5,7.3,30.04,NE,45,1.7,4.9,67,0.00,,,0.00,WUHU216HW,2013-01-11 13:14:00,
2013-01-11 06:19:00,16.5,7.0,30.04,NNE,23,1.1,5.3,66,0.00,,,0.00,WUHU216HW,2013-01-11 13:19:00,
2013-01-11 06:24:00,16.5,7.3,30.04,NNE,23,0.0,5.3,67,0.00,,,0.00,WUHU216HW,2013-01-11 13:24:00,
2013-01-11 06:29:00,16.5,7.7,30.04,NE,45,0.0,5.3,67,0.00,,,0.00,WUHU216HW,2013-01-11 13:29:00,
2013-01-11 06:34:00,16.3,7.5,30.05,NE,45,2.2,2.6,68,0.00,,,0.00,WUHU216HW,2013-01-11 13:34:00,
2013-01-11 06:39:00,16.3,7.5,30.05,NE,45,3.5,4.9,68,0.00,,,0.00,WUHU216HW,2013-01-11 13:39:00,
2013-01-11 06:44:00,16.3,7.2,30.05,ENE,68,0.0,3.5,67,0.00,,,0.00,WUHU216HW,2013-01-11 13:44:00,
2013-01-11 06:49:00,16.1,7.0,30.05,NE,45,5.1,7.1,67,0.00,,,0.00,WUHU216HW,2013-01-11 13:49:00,
2013-01-11 06:54:00,16.1,7.0,30.05,NE,45,0.8,7.1,67,0.00,,,0.00,WUHU216HW,2013-01-11 13:54:00,
2013-01-11 06:59:00,16.1,7.0,30.06,East,90,0.0,4.9,67,0.00,,,0.00,WUHU216HW,2013-01-11 13:59:00,
2013-01-11 07:04:00,16.1,7.3,30.06,East,90,2.4,4.9,68,0.00,,,0.00,WUHU216HW,2013-01-11 14:04:00,
2013-01-11 07:09:00,15.9,7.1,30.06,ENE,68,8.7,8.7,68,0.00,,,0.00,WUHU216HW,2013-01-11 14:09:00,
2013-01-11 07:14:00,16.1,7.0,30.07,NNE,23,2.2,8.7,67,0.00,,,0.00,WUHU216HW,2013-01-11 14:14:00,
2013-01-11 07:19:00,16.1,6.6,30.07,North,0,3.3,5.5,66,0.00,,,0.00,WUHU216HW,2013-01-11 14:19:00,
2013-01-11 07:24:00,16.1,6.6,30.07,SE,135,0.0,8.0,66,0.00,,,0.00,WUHU216HW,2013-01-11 14:24:00,
2013-01-11 07:29:00,16.1,7.0,30.08,NE,45,7.8,8.0,67,0.00,,,0.00,WUHU216HW,2013-01-11 14:29:00,
2013-01-11 07:34:00,16.1,6.6,30.08,ENE,68,7.1,7.8,66,0.00,,,0.00,WUHU216HW,2013-01-11 14:34:00,
2013-01-11 07:39:00,16.3,6.5,30.08,NE,45,2.6,7.1,65,0.00,,,0.00,WUHU216HW,2013-01-11 14:39:00,
2013-01-11 07:44:00,16.3,6.5,30.08,ESE,113,6.4,6.9,65,0.00,,,0.00,WUHU216HW,2013-01-11 14:44:00,
2013-01-11 07:49:00,16.3,6.5,30.08,NE,45,2.2,10.5,65,0.00,,,0.00,WUHU216HW,2013-01-11 14:49:00,
2013-01-11 07:54:00,16.3,6.5,30.09,ESE,113,0.0,10.5,65,0.00,,,0.00,WUHU216HW,2013-01-11 14:54:00,
2013-01-11 07:59:00,16.3,6.5,30.09,NE,45,2.4,6.2,65,0.00,,,0.00,WUHU216HW,2013-01-11 14:59:00,
2013-01-11 08:04:00,16.1,6.3,30.10,NNE,23,2.4,6.2,65,0.00,,,0.00,WUHU216HW,2013-01-11 15:04:00,
2013-01-11 08:09:00,16.1,6.3,30.09,NE,45,0.0,5.8,65,0.00,,,0.00,WUHU216HW,2013-01-11 15:09:00,
2013-01-11 08:14:00,16.1,6.3,30.10,ENE,68,2.0,4.4,65,0.00,,,0.00,WUHU216HW,2013-01-11 15:14:00,
2013-01-11 08:19:00,15.9,6.1,30.10,SE,135,0.0,6.2,65,0.00,,,0.00,WUHU216HW,2013-01-11 15:19:00,
2013-01-11 08:24:00,15.9,5.8,30.10,NNE,23,0.0,6.9,64,0.00,,,0.00,WUHU216HW,2013-01-11 15:24:00,
2013-01-11 08:29:00,15.9,5.8,30.10,NNE,23,0.0,6.9,64,0.00,,,0.00,WUHU216HW,2013-01-11 15:29:00,
2013-01-11 08:34:00,15.9,5.4,30.10,ENE,68,0.0,7.8,63,0.00,,,0.00,WUHU216HW,2013-01-11 15:34:00,
2013-01-11 08:39:00,15.9,6.1,30.10,North,0,0.0,7.8,65,0.00,,,0.00,WUHU216HW,2013-01-11 15:39:00,
2013-01-11 08:44:00,15.9,6.5,30.10,North,0,0.0,4.4,66,0.00,,,0.00,WUHU216HW,2013-01-11 15:44:00,
2013-01-11 08:49:00,15.8,6.3,30.11,North,0,0.0,0.0,66,0.00,,,0.00,WUHU216HW,2013-01-11 15:49:00,
2013-01-11 08:55:00,15.6,6.5,30.11,NE,45,0.0,0.0,67,0.00,,,0.00,WUHU216HW,2013-01-11 15:55:00,
2013-01-11 09:00:00,15.6,6.5,30.11,SE,135,2.2,3.3,67,0.00,,,0.00,WUHU216HW,2013-01-11 16:00:00,
2013-01-11 09:05:00,15.6,6.1,30.11,NE,45,3.5,4.6,66,0.00,,,0.00,WUHU216HW,2013-01-11 16:05:00,
2013-01-11 09:10:00,15.6,6.1,30.11,NE,45,0.0,4.6,66,0.00,,,0.00,WUHU216HW,2013-01-11 16:10:00,
2013-01-11 09:15:00,15.6,6.1,30.12,NNE,23,0.0,3.8,66,0.00,,,0.00,WUHU216HW,2013-01-11 16:15:00,
2013-01-11 09:20:00,15.6,6.5,30.12,NNE,23,0.0,3.8,67,0.00,,,0.00,WUHU216HW,2013-01-11 16:20:00,
2013-01-11 09:25:00,15.6,6.5,30.12,ENE,68,2.0,4.4,67,0.00,,,0.00,WUHU216HW,2013-01-11 16:25:00,
2013-01-11 09:30:00,15.8,6.3,30.12,NE,45,2.6,4.6,66,0.00,,,0.00,WUHU216HW,2013-01-11 16:30:00,
2013-01-11 09:35:00,15.8,6.3,30.12,NE,45,0.0,4.6,66,0.00,,,0.00,WUHU216HW,2013-01-11 16:35:00,
2013-01-11 09:40:00,15.9,6.1,30.13,ENE,68,0.0,2.9,65,0.00,,,0.00,WUHU216HW,2013-01-11 16:40:00,
2013-01-11 09:45:00,15.9,6.5,30.13,ENE,68,0.0,2.9,66,0.00,,,0.00,WUHU216HW,2013-01-11 16:45:00,
2013-01-11 09:50:00,16.1,7.0,30.13,NE,45,0.0,2.9,67,0.00,,,0.00,WUHU216HW,2013-01-11 16:50:00,
2013-01-11 09:55:00,16.3,6.8,30.13,NE,45,0.0,2.9,66,0.00,,,0.00,WUHU216HW,2013-01-11 16:55:00,
2013-01-11 10:00:00,16.3,6.8,30.14,NE,45,3.3,4.0,66,0.00,,,0.00,WUHU216HW,2013-01-11 17:00:00,
2013-01-11 10:05:00,16.5,6.7,30.13,NE,45,0.0,4.0,65,0.00,,,0.00,WUHU216HW,2013-01-11 17:05:00,
2013-01-11 10:10:00,16.7,6.2,30.14,North,0,0.0,5.3,63,0.00,,,0.00,WUHU216HW,2013-01-11 17:10:00,
2013-01-11 10:15:00,16.8,6.3,30.14,NNE,23,6.2,6.2,63,0.00,,,0.00,WUHU216HW,2013-01-11 17:15:00,
2013-01-11 10:20:00,16.8,6.7,30.14,NE,45,0.0,6.2,64,0.00,,,0.00,WUHU216HW,2013-01-11 17:20:00,
2013-01-11 10:25:00,17.2,6.7,30.15,NE,45,2.6,4.9,63,0.00,,,0.00,WUHU216HW,2013-01-11 17:25:00,
2013-01-11 10:31:00,17.2,6.7,30.15,NE,45,0.8,4.4,63,0.00,,,0.00,WUHU216HW,2013-01-11 17:31:00,
2013-01-11 10:36:00,17.4,6.9,30.15,NE,45,4.6,4.6,63,0.00,,,0.00,WUHU216HW,2013-01-11 17:36:00,
2013-01-11 10:41:00,17.7,6.9,30.15,NE,45,5.1,5.1,62,0.00,,,0.00,WUHU216HW,2013-01-11 17:41:00,
2013-01-11 10:46:00,17.7,6.5,30.15,NNE,23,1.7,7.1,61,0.00,,,0.00,WUHU216HW,2013-01-11 17:46:00,
2013-01-11 10:51:00,18.1,6.9,30.15,NE,45,0.0,7.1,61,0.00,,,0.00,WUHU216HW,2013-01-11 17:51:00,
2013-01-11 10:56:00,18.1,6.5,30.15,NE,45,2.2,4.2,60,0.00,,,0.00,WUHU216HW,2013-01-11 17:56:00,
2013-01-11 11:01:00,18.3,6.7,30.15,ESE,113,0.4,4.0,60,0.00,,,0.00,WUHU216HW,2013-01-11 18:01:00,
2013-01-11 11:06:00,18.6,6.4,30.15,ENE,68,3.5,3.5,59,0.00,,,0.00,WUHU216HW,2013-01-11 18:06:00,
2013-01-11 11:11:00,18.6,6.6,30.16,NNE,23,1.5,5.1,59,0.00,,,0.00,WUHU216HW,2013-01-11 18:11:00,
2013-01-11 11:16:00,18.8,6.8,30.15,NE,45,0.0,5.1,59,0.00,,,0.00,WUHU216HW,2013-01-11 18:16:00,
2013-01-11 11:21:00,19.0,6.9,30.15,East,90,0.0,3.3,59,0.00,,,0.00,WUHU216HW,2013-01-11 18:21:00,
2013-01-11 11:26:00,19.2,6.3,30.15,ESE,113,7.1,7.1,57,0.00,,,0.00,WUHU216HW,2013-01-11 18:26:00,
2013-01-11 11:31:00,19.2,5.9,30.16,ESE,113,9.1,9.1,56,0.00,,,0.00,WUHU216HW,2013-01-11 18:31:00,
2013-01-11 11:36:00,19.2,5.9,30.16,NNE,23,4.0,9.1,56,0.00,,,0.00,WUHU216HW,2013-01-11 18:36:00,
2013-01-11 11:41:00,19.4,6.1,30.16,ENE,68,0.0,6.2,56,0.00,,,0.00,WUHU216HW,2013-01-11 18:41:00,
2013-01-11 11:46:00,19.5,6.6,30.16,NE,45,5.3,6.2,57,0.00,,,0.00,WUHU216HW,2013-01-11 18:46:00,
2013-01-11 11:51:00,19.5,6.2,30.16,NE,45,7.1,7.1,56,0.00,,,0.00,WUHU216HW,2013-01-11 18:51:00,
2013-01-11 11:56:00,19.5,6.2,30.16,East,90,0.0,7.1,56,0.00,,,0.00,WUHU216HW,2013-01-11 18:56:00,
2013-01-11 12:01:00,19.5,5.8,30.16,ESE,113,6.0,8.0,55,0.00,,,0.00,WUHU216HW,2013-01-11 19:01:00,
2013-01-11 12:06:00,19.4,5.3,30.15,NE,45,4.0,8.0,54,0.00,,,0.00,WUHU216HW,2013-01-11 19:06:00,
2013-01-11 12:11:00,19.2,5.1,30.15,NE,45,0.8,7.1,54,0.00,,,0.00,WUHU216HW,2013-01-11 19:11:00,
2013-01-11 12:16:00,19.2,5.5,30.15,NNE,23,1.5,4.0,55,0.00,,,0.00,WUHU216HW,2013-01-11 19:16:00,
2013-01-11 12:21:00,19.2,5.5,30.15,NE,45,0.0,4.2,55,0.00,,,0.00,WUHU216HW,2013-01-11 19:21:00,
2013-01-11 12:26:00,19.2,5.5,30.15,NE,45,1.1,4.2,55,0.00,,,0.00,WUHU216HW,2013-01-11 19:26:00,
2013-01-11 12:31:00,19.2,5.5,30.15,NE,45,5.8,5.8,55,0.00,,,0.00,WUHU216HW,2013-01-11 19:31:00,
2013-01-11 12:36:00,19.2,5.9,30.16,NE,45,4.4,5.8,56,0.00,,,0.00,WUHU216HW,2013-01-11 19:36:00,
2013-01-11 12:41:00,19.4,5.7,30.15,East,90,1.1,4.4,55,0.00,,,0.00,WUHU216HW,2013-01-11 19:41:00,
2013-01-11 12:46:00,19.5,5.8,30.15,NE,45,0.0,6.9,55,0.00,,,0.00,WUHU216HW,2013-01-11 19:46:00,
2013-01-11 12:51:00,19.5,5.4,30.15,NE,45,1.7,6.9,54,0.00,,,0.00,WUHU216HW,2013-01-11 19:51:00,
2013-01-11 12:57:00,19.5,5.4,30.16,NE,45,1.1,5.5,54,0.00,,,0.00,WUHU216HW,2013-01-11 19:57:00,
2013-01-11 13:02:00,19.5,6.2,30.15,North,0,2.6,5.3,56,0.00,,,0.00,WUHU216HW,2013-01-11 20:02:00,
2013-01-11 13:07:00,19.9,6.6,30.15,ENE,68,2.0,5.3,56,0.00,,,0.00,WUHU216HW,2013-01-11 20:07:00,
2013-01-11 13:12:00,19.9,6.2,30.15,NNE,23,5.1,6.0,55,0.00,,,0.00,WUHU216HW,2013-01-11 20:12:00,
2013-01-11 13:17:00,19.9,5.8,30.15,NE,45,8.0,8.0,54,0.00,,,0.00,WUHU216HW,2013-01-11 20:17:00,
2013-01-11 13:22:00,19.9,5.8,30.16,ENE,68,3.8,8.0,54,0.00,,,0.00,WUHU216HW,2013-01-11 20:22:00,
2013-01-11 13:27:00,20.1,5.9,30.16,NE,45,0.0,7.6,54,0.00,,,0.00,WUHU216HW,2013-01-11 20:27:00,
2013-01-11 13:32:00,20.1,5.9,30.16,North,0,2.9,7.6,54,0.00,,,0.00,WUHU216HW,2013-01-11 20:32:00,
2013-01-11 13:37:00,20.3,5.7,30.16,East,90,5.1,6.0,53,0.00,,,0.00,WUHU216HW,2013-01-11 20:37:00,
2013-01-11 13:42:00,20.3,5.7,30.16,NE,45,4.9,5.1,53,0.00,,,0.00,WUHU216HW,2013-01-11 20:42:00,
2013-01-11 13:47:00,20.3,6.1,30.16,NE,45,3.3,4.9,54,0.00,,,0.00,WUHU216HW,2013-01-11 20:47:00,
2013-01-11 13:52:00,20.3,5.7,30.16,NNE,23,4.2,8.0,53,0.00,,,0.00,WUHU216HW,2013-01-11 20:52:00,
2013-01-11 13:57:00,20.3,5.7,30.16,NE,45,0.0,8.0,53,0.00,,,0.00,WUHU216HW,2013-01-11 20:57:00,
2013-01-11 14:02:00,20.3,5.7,30.16,NE,45,5.5,5.5,53,0.00,,,0.00,WUHU216HW,2013-01-11 21:02:00,
2013-01-11 14:07:00,20.4,6.3,30.16,NNE,23,0.0,5.5,54,0.00,,,0.00,WUHU216HW,2013-01-11 21:07:00,
2013-01-11 14:12:00,20.4,5.9,30.16,ENE,68,2.6,3.8,53,0.00,,,0.00,WUHU216HW,2013-01-11 21:12:00,
2013-01-11 14:17:00,20.4,5.9,30.16,NE,45,3.3,4.6,53,0.00,,,0.00,WUHU216HW,2013-01-11 21:17:00,
2013-01-11 14:22:00,20.4,5.5,30.17,NNE,23,2.9,8.2,52,0.00,,,0.00,WUHU216HW,2013-01-11 21:22:00,
2013-01-11 14:27:00,20.4,5.5,30.17,NE,45,4.9,8.2,53,0.00,,,0.00,WUHU216HW,2013-01-11 21:27:00,
2013-01-11 14:32:00,20.4,5.9,30.17,NE,45,3.1,4.9,53,0.00,,,0.00,WUHU216HW,2013-01-11 21:32:00,
2013-01-11 14:37:00,20.1,5.5,30.17,NNW,338,0.0,3.1,53,0.00,,,0.00,WUHU216HW,2013-01-11 21:37:00,
2013-01-11 14:42:00,19.9,5.0,30.17,NE,45,0.0,7.6,52,0.00,,,0.00,WUHU216HW,2013-01-11 21:42:00,
2013-01-11 14:47:00,19.5,4.6,30.18,NE,45,2.6,7.6,52,0.00,,,0.00,WUHU216HW,2013-01-11 21:47:00,
2013-01-11 14:52:00,19.4,4.5,30.18,ENE,68,0.0,5.8,52,0.00,,,0.00,WUHU216HW,2013-01-11 21:52:00,
2013-01-11 14:57:00,19.2,4.7,30.18,ENE,68,0.0,5.8,53,0.00,,,0.00,WUHU216HW,2013-01-11 21:57:00,
2013-01-11 15:02:00,19.2,4.3,30.18,ENE,68,1.3,4.2,52,0.00,,,0.00,WUHU216HW,2013-01-11 22:02:00,
2013-01-11 15:07:00,19.2,4.7,30.18,ENE,68,0.0,4.4,53,0.00,,,0.00,WUHU216HW,2013-01-11 22:07:00,
2013-01-11 15:12:00,19.4,4.9,30.18,ENE,68,0.0,4.4,53,0.00,,,0.00,WUHU216HW,2013-01-11 22:12:00,
2013-01-11 15:17:00,19.5,5.0,30.18,NNE,23,0.0,4.2,53,0.00,,,0.00,WUHU216HW,2013-01-11 22:17:00,
2013-01-11 15:22:00,19.5,5.0,30.19,East,90,0.6,4.2,53,0.00,,,0.00,WUHU216HW,2013-01-11 22:22:00,
2013-01-11 15:27:00,19.5,5.0,30.18,ENE,68,0.0,4.0,53,0.00,,,0.00,WUHU216HW,2013-01-11 22:27:00,
2013-01-11 15:32:00,19.5,5.0,30.19,NE,45,0.0,4.6,53,0.00,,,0.00,WUHU216HW,2013-01-11 22:32:00,
2013-01-11 15:37:00,19.4,4.9,30.19,ENE,68,0.0,5.3,53,0.00,,,0.00,WUHU216HW,2013-01-11 22:37:00,
2013-01-11 15:43:00,19.4,4.9,30.19,ENE,68,0.0,5.3,53,0.00,,,0.00,WUHU216HW,2013-01-11 22:43:00,
2013-01-11 15:48:00,19.2,4.7,30.19,ENE,68,0.0,3.3,53,0.00,,,0.00,WUHU216HW,2013-01-11 22:48:00,
2013-01-11 15:53:00,19.0,5.0,30.19,East,90,3.5,3.5,54,0.00,,,0.00,WUHU216HW,2013-01-11 22:53:00,
2013-01-11 15:58:00,18.8,4.8,30.19,ENE,68,0.0,3.5,54,0.00,,,0.00,WUHU216HW,2013-01-11 22:58:00,
2013-01-11 16:03:00,18.6,4.6,30.19,ENE,68,0.0,2.6,54,0.00,,,0.00,WUHU216HW,2013-01-11 23:03:00,
2013-01-11 16:08:00,18.5,4.5,30.20,ENE,68,0.0,3.3,54,0.00,,,0.00,WUHU216HW,2013-01-11 23:08:00,
2013-01-11 16:13:00,18.5,4.5,30.19,ESE,113,0.0,3.3,54,0.00,,,0.00,WUHU216HW,2013-01-11 23:13:00,
2013-01-11 16:18:00,18.3,4.3,30.19,ESE,113,0.0,2.9,54,0.00,,,0.00,WUHU216HW,2013-01-11 23:18:00,
2013-01-11 16:23:00,18.3,4.7,30.19,SSE,158,0.0,1.7,55,0.00,,,0.00,WUHU216HW,2013-01-11 23:23:00,
2013-01-11 16:28:00,18.3,4.7,30.20,SSE,158,0.0,1.7,55,0.00,,,0.00,WUHU216HW,2013-01-11 23:28:00,
2013-01-11 16:33:00,18.1,4.5,30.20,SSE,158,0.0,0.0,55,0.00,,,0.00,WUHU216HW,2013-01-11 23:33:00,
2013-01-11 16:38:00,17.9,4.4,30.20,SE,135,0.0,0.0,55,0.00,,,0.00,WUHU216HW,2013-01-11 23:38:00,
2013-01-11 16:43:00,17.7,4.6,30.20,SE,135,0.0,0.0,56,0.00,,,0.00,WUHU216HW,2013-01-11 23:43:00,
2013-01-11 16:48:00,17.4,4.3,30.20,SE,135,0.0,0.0,56,0.00,,,0.00,WUHU216HW,2013-01-11 23:48:00,
2013-01-11 16:53:00,17.2,4.5,30.20,SE,135,0.0,0.0,57,0.00,,,0.00,WUHU216HW,2013-01-11 23:53:00,
2013-01-11 16:58:00,16.8,4.1,30.20,SE,135,0.0,1.1,57,0.00,,,0.00,WUHU216HW,2013-01-11 23:58:00,
2013-01-11 17:03:00,16.7,4.0,30.20,SE,135,0.0,1.1,57,0.00,,,0.00,WUHU216HW,2013-01-12 00:03:00,
2013-01-11 17:09:00,16.3,3.6,30.20,SE,135,2.9,2.9,57,0.00,,,0.00,WUHU216HW,2013-01-12 00:09:00,
2013-01-11 17:14:00,16.1,3.8,30.20,SE,135,1.3,3.8,58,0.00,,,0.00,WUHU216HW,2013-01-12 00:14:00,
2013-01-11 17:19:00,15.8,3.9,30.20,SE,135,1.7,3.8,59,0.00,,,0.00,WUHU216HW,2013-01-12 00:19:00,
2013-01-11 17:24:00,15.6,3.7,30.20,SE,135,0.0,2.9,59,0.00,,,0.00,WUHU216HW,2013-01-12 00:24:00,
2013-01-11 17:29:00,15.2,3.3,30.20,SE,135,0.0,2.9,59,0.00,,,0.00,WUHU216HW,2013-01-12 00:29:00,
2013-01-11 17:34:00,14.7,2.9,30.20,SE,135,2.2,2.2,59,0.00,,,0.00,WUHU216HW,2013-01-12 00:34:00,
2013-01-11 17:39:00,14.5,3.1,30.20,SE,135,0.0,2.2,60,0.00,,,0.00,WUHU216HW,2013-01-12 00:39:00,
2013-01-11 17:44:00,14.1,2.8,30.20,SE,135,0.0,2.6,60,0.00,,,0.00,WUHU216HW,2013-01-12 00:44:00,
2013-01-11 17:49:00,14.1,2.8,30.20,SE,135,0.0,2.6,60,0.00,,,0.00,WUHU216HW,2013-01-12 00:49:00,
2013-01-11 17:54:00,13.8,2.8,30.20,SE,135,0.0,2.0,61,0.00,,,0.00,WUHU216HW,2013-01-12 00:54:00,
2013-01-11 17:59:00,13.4,2.4,30.20,SE,135,0.0,0.0,61,0.00,,,0.00,WUHU216HW,2013-01-12 00:59:00,
2013-01-11 18:04:00,12.9,1.9,30.20,SE,135,0.0,0.0,61,0.00,,,0.00,WUHU216HW,2013-01-12 01:04:00,
2013-01-11 18:09:00,12.5,1.9,30.20,SE,135,0.0,0.0,62,0.00,,,0.00,WUHU216HW,2013-01-12 01:09:00,
2013-01-11 18:14:00,12.0,1.3,30.20,SE,135,0.0,0.0,62,0.00,,,0.00,WUHU216HW,2013-01-12 01:14:00,
2013-01-11 18:19:00,11.8,1.5,30.20,SE,135,0.0,0.0,63,0.00,,,0.00,WUHU216HW,2013-01-12 01:19:00,
2013-01-11 18:25:00,11.4,1.2,30.20,SE,135,0.0,0.0,62,0.00,,,0.00,WUHU216HW,2013-01-12 01:25:00,
2013-01-11 18:30:00,11.3,1.0,30.20,SE,135,0.0,0.0,63,0.00,,,0.00,WUHU216HW,2013-01-12 01:30:00,
2013-01-11 18:35:00,11.1,1.2,30.20,SE,135,0.0,0.0,64,0.00,,,0.00,WUHU216HW,2013-01-12 01:35:00,
2013-01-11 18:40:00,10.9,1.0,30.20,SE,135,0.0,0.0,64,0.00,,,0.00,WUHU216HW,2013-01-12 01:40:00,
2013-01-11 18:45:00,10.7,1.2,30.20,SE,135,0.0,0.0,65,0.00,,,0.00,WUHU216HW,2013-01-12 01:45:00,
2013-01-11 18:50:00,10.5,1.0,30.20,SE,135,0.0,0.0,65,0.00,,,0.00,WUHU216HW,2013-01-12 01:50:00,
2013-01-11 18:55:00,10.2,1.0,30.20,SE,135,0.0,0.0,66,0.00,,,0.00,WUHU216HW,2013-01-12 01:55:00,
2013-01-11 19:00:00,10.2,1.0,30.20,SE,135,0.0,0.0,66,0.00,,,0.00,WUHU216HW,2013-01-12 02:00:00,
2013-01-11 19:05:00,10.2,1.0,30.20,SE,135,0.0,0.0,66,0.00,,,0.00,WUHU216HW,2013-01-12 02:05:00,
2013-01-11 19:11:00,10.2,1.0,30.20,SE,135,0.0,0.0,66,0.00,,,0.00,WUHU216HW,2013-01-12 02:11:00,
2013-01-11 19:16:00,10.0,0.8,30.20,SE,135,0.0,0.0,66,0.00,,,0.00,WUHU216HW,2013-01-12 02:16:00,
2013-01-11 19:21:00,9.6,0.5,30.20,SE,135,0.0,0.0,66,0.00,,,0.00,WUHU216HW,2013-01-12 02:21:00,
2013-01-11 19:26:00,9.5,0.3,30.20,SE,135,0.0,0.0,66,0.00,,,0.00,WUHU216HW,2013-01-12 02:26:00,
2013-01-11 19:31:00,9.3,0.1,30.20,SE,135,0.0,0.0,66,0.00,,,0.00,WUHU216HW,2013-01-12 02:31:00,
2013-01-11 19:36:00,9.3,0.5,30.20,SE,135,0.0,0.0,67,0.00,,,0.00,WUHU216HW,2013-01-12 02:36:00,
2013-01-11 19:41:00,9.1,0.3,30.20,SE,135,0.0,0.0,67,0.00,,,0.00,WUHU216HW,2013-01-12 02:41:00,
2013-01-11 19:46:00,9.3,0.5,30.20,SE,135,0.0,0.0,67,0.00,,,0.00,WUHU216HW,2013-01-12 02:46:00,
2013-01-11 19:51:00,9.1,0.3,30.20,SE,135,0.0,0.0,67,0.00,,,0.00,WUHU216HW,2013-01-12 02:51:00,
2013-01-11 19:56:00,9.1,0.3,30.20,SE,135,0.0,0.0,67,0.00,,,0.00,WUHU216HW,2013-01-12 02:56:00,
2013-01-11 20:02:00,9.1,0.3,30.20,SE,135,0.0,0.0,67,0.00,,,0.00,WUHU216HW,2013-01-12 03:02:00,
2013-01-11 20:07:00,8.9,0.1,30.20,SE,135,0.0,0.0,67,0.00,,,0.00,WUHU216HW,2013-01-12 03:07:00,
2013-01-11 20:12:00,8.6,0.1,30.19,SE,135,0.0,0.0,68,0.00,,,0.00,WUHU216HW,2013-01-12 03:12:00,
2013-01-11 20:17:00,8.4,0.0,30.20,SE,135,0.0,0.0,68,0.00,,,0.00,WUHU216HW,2013-01-12 03:17:00,
2013-01-11 20:22:00,8.2,-0.1,30.20,SE,135,0.0,0.0,68,0.00,,,0.00,WUHU216HW,2013-01-12 03:22:00,
2013-01-11 20:27:00,7.8,-0.5,30.20,SE,135,0.0,0.0,68,0.00,,,0.00,WUHU216HW,2013-01-12 03:27:00,
2013-01-11 20:32:00,7.5,-0.7,30.20,SE,135,0.0,0.0,68,0.00,,,0.00,WUHU216HW,2013-01-12 03:32:00,
2013-01-11 20:37:00,7.3,-0.7,30.20,SE,135,0.0,0.0,69,0.00,,,0.00,WUHU216HW,2013-01-12 03:37:00,
2013-01-11 20:42:00,6.9,-1.1,30.20,SE,135,0.0,0.0,69,0.00,,,0.00,WUHU216HW,2013-01-12 03:42:00,
2013-01-11 20:47:00,6.9,-1.1,30.20,SE,135,0.0,0.0,69,0.00,,,0.00,WUHU216HW,2013-01-12 03:47:00,
2013-01-11 20:52:00,6.9,-0.7,30.20,SE,135,0.0,0.0,70,0.00,,,0.00,WUHU216HW,2013-01-12 03:52:00,
2013-01-11 20:57:00,6.6,-1.1,30.20,SE,135,0.0,0.0,70,0.00,,,0.00,WUHU216HW,2013-01-12 03:57:00,
2013-01-11 21:02:00,6.6,-1.1,30.19,SE,135,0.0,0.0,70,0.00,,,0.00,WUHU216HW,2013-01-12 04:02:00,
2013-01-11 21:07:00,6.6,-1.1,30.20,SE,135,0.0,0.0,70,0.00,,,0.00,WUHU216HW,2013-01-12 04:07:00,
2013-01-11 21:12:00,6.6,-0.8,30.20,SE,135,0.0,0.0,71,0.00,,,0.00,WUHU216HW,2013-01-12 04:12:00,
2013-01-11 21:18:00,6.6,-0.8,30.20,SE,135,0.0,0.0,71,0.00,,,0.00,WUHU216HW,2013-01-12 04:18:00,
2013-01-11 21:23:00,6.6,-0.8,30.20,SE,135,0.0,0.0,71,0.00,,,0.00,WUHU216HW,2013-01-12 04:23:00,
2013-01-11 21:28:00,6.6,-0.8,30.20,SE,135,0.0,0.0,71,0.00,,,0.00,WUHU216HW,2013-01-12 04:28:00,
2013-01-11 21:33:00,6.6,-0.8,30.20,SE,135,0.0,0.0,71,0.00,,,0.00,WUHU216HW,2013-01-12 04:33:00,
2013-01-11 21:38:00,6.6,-0.5,30.20,South,180,2.0,2.0,72,0.00,,,0.00,WUHU216HW,2013-01-12 04:38:00,
2013-01-11 21:43:00,6.9,-0.1,30.20,South,180,2.2,2.4,72,0.00,,,0.00,WUHU216HW,2013-01-12 04:43:00,
2013-01-11 21:48:00,6.9,-0.1,30.20,South,180,2.6,2.6,72,0.00,,,0.00,WUHU216HW,2013-01-12 04:48:00,
2013-01-11 21:53:00,7.1,0.0,30.20,South,180,2.4,2.6,72,0.00,,,0.00,WUHU216HW,2013-01-12 04:53:00,
2013-01-11 21:58:00,7.1,0.0,30.20,South,180,0.0,2.4,72,0.00,,,0.00,WUHU216HW,2013-01-12 04:58:00,
2013-01-11 22:00:00,7.1,0.0,30.20,South,180,0.0,2.4,72,0.00,,,0.00,WUHU216HW,2013-01-12 05:00:00,
2013-01-11 22:01:00,6.9,0.0,30.20,South,180,0.0,2.4,72,0.00,,,0.00,WUHU216HW,2013-01-12 05:01:00,
2013-01-11 22:02:00,7.1,0.0,30.20,South,180,0.0,2.4,72,0.00,,,0.00,WUHU216HW,2013-01-12 05:02:00,
2013-01-11 22:07:00,6.9,-0.1,30.20,SSW,203,0.0,0.0,72,0.00,,,0.00,WUHU216HW,2013-01-12 05:07:00,
2013-01-11 22:12:00,6.9,-0.1,30.20,SSW,203,0.0,0.0,72,0.00,,,0.00,WUHU216HW,2013-01-12 05:12:00,
2013-01-11 22:17:00,6.6,-0.5,30.20,SSW,203,0.0,0.0,72,0.00,,,0.00,WUHU216HW,2013-01-12 05:17:00,
2013-01-11 22:22:00,6.4,-0.7,30.20,SSW,203,0.0,0.0,72,0.00,,,0.00,WUHU216HW,2013-01-12 05:22:00,
2013-01-11 22:27:00,6.0,-1.0,30.20,SSW,203,0.0,0.0,72,0.00,,,0.00,WUHU216HW,2013-01-12 05:27:00,
2013-01-11 22:32:00,6.0,-1.0,30.20,SSW,203,0.0,0.0,72,0.00,,,0.00,WUHU216HW,2013-01-12 05:32:00,
2013-01-11 22:37:00,5.7,-1.4,30.20,SSW,203,0.0,0.0,72,0.00,,,0.00,WUHU216HW,2013-01-12 05:37:00,
2013-01-11 22:42:00,5.3,-1.8,30.19,SSW,203,0.0,0.0,72,0.00,,,0.00,WUHU216HW,2013-01-12 05:42:00,
2013-01-11 22:48:00,5.0,-2.1,30.19,SSW,203,0.0,0.0,72,0.00,,,0.00,WUHU216HW,2013-01-12 05:48:00,
2013-01-11 22:53:00,4.8,-2.0,30.19,North,0,0.0,0.0,73,0.00,,,0.00,WUHU216HW,2013-01-12 05:53:00,
2013-01-11 22:58:00,4.4,-2.3,30.19,SSW,203,0.0,0.0,73,0.00,,,0.00,WUHU216HW,2013-01-12 05:58:00,
2013-01-11 23:03:00,4.2,-2.5,30.20,SSW,203,0.0,0.0,73,0.00,,,0.00,WUHU216HW,2013-01-12 06:03:00,
2013-01-11 23:08:00,3.9,-2.8,30.19,SSW,203,0.0,0.0,73,0.00,,,0.00,WUHU216HW,2013-01-12 06:08:00,
2013-01-11 23:13:00,3.7,-2.7,30.19,SSW,203,0.0,0.0,74,0.00,,,0.00,WUHU216HW,2013-01-12 06:13:00,
2013-01-11 23:18:00,3.9,-2.6,30.19,SSW,203,0.0,0.0,74,0.00,,,0.00,WUHU216HW,2013-01-12 06:18:00,
2013-01-11 23:23:00,3.9,-2.6,30.19,SSW,203,0.0,0.0,74,0.00,,,0.00,WUHU216HW,2013-01-12 06:23:00,
2013-01-11 23:28:00,3.9,-2.3,30.19,SSW,203,0.0,0.0,75,0.00,,,0.00,WUHU216HW,2013-01-12 06:28:00,
2013-01-11 23:33:00,3.9,-2.3,30.19,SSW,203,0.0,0.0,75,0.00,,,0.00,WUHU216HW,2013-01-12 06:33:00,
2013-01-11 23:38:00,3.9,-2.3,30.19,South,180,0.0,0.0,75,0.00,,,0.00,WUHU216HW,2013-01-12 06:38:00,
2013-01-11 23:43:00,4.1,-1.8,30.20,SSW,203,0.0,0.0,76,0.00,,,0.00,WUHU216HW,2013-01-12 06:43:00,
2013-01-11 23:48:00,4.2,-1.7,30.19,SSW,203,0.0,0.0,76,0.00,,,0.00,WUHU216HW,2013-01-12 06:48:00,
2013-01-11 23:53:00,4.8,-1.1,30.19,SSW,203,0.0,0.0,77,0.00,,,0.00,WUHU216HW,2013-01-12 06:53:00,
2013-01-11 23:58:00,5.1,-0.5,30.19,SSW,203,0.0,0.0,77,0.00,,,0.00,WUHU216HW,2013-01-12 06:58:00,